Time,TemperatureF,DewpointF,PressureIn,WindDirection,WindDirectionDegrees,WindSpeedMPH,WindSpeedGustMPH,Humidity,HourlyPrecipIn,Conditions,Clouds,dailyrainin,SolarRadiationWatts/m^2,SoftwareType,DateUTC
2013-04-16 00:12:00,48.4,46.0,29.50,SE,140,5.0,-999.0,90,-99.99,,,0.01,0,weatherlink.com 1.10,2013-04-15 23:12:00,
2013-04-16 00:27:00,48.2,46.0,29.49,SE,131,6.0,-999.0,91,-99.99,,,0.02,0,weatherlink.com 1.10,2013-04-15 23:27:00,
2013-04-16 00:43:00,48.1,45.0,29.47,SSE,165,4.0,-999.0,90,-99.99,,,0.02,0,weatherlink.com 1.10,2013-04-15 23:43:00,
2013-04-16 00:58:00,48.2,46.0,29.46,South,180,10.0,-999.0,90,-99.99,,,0.02,0,weatherlink.com 1.10,2013-04-15 23:58:00,
2013-04-16 01:13:00,48.6,45.0,29.45,SE,137,23.0,-999.0,88,-99.99,,,0.02,0,weatherlink.com 1.10,2013-04-16 00:13:00,
2013-04-16 01:28:00,48.5,46.0,29.43,SE,128,12.0,-999.0,89,-99.99,,,0.02,0,weatherlink.com 1.10,2013-04-16 00:28:00,
2013-04-16 01:43:00,48.7,46.0,29.42,SSW,205,9.0,-999.0,90,-99.99,,,0.02,0,weatherlink.com 1.10,2013-04-16 00:43:00,
2013-04-16 01:58:00,49.0,46.0,29.40,SE,141,6.0,-999.0,90,-99.99,,,0.02,0,weatherlink.com 1.10,2013-04-16 00:58:00,
2013-04-16 02:13:00,49.1,46.0,29.40,SSE,165,5.0,-999.0,90,-99.99,,,0.02,0,weatherlink.com 1.10,2013-04-16 01:13:00,
2013-04-16 02:28:00,49.2,47.0,29.39,South,186,9.0,-999.0,90,-99.99,,,0.02,0,weatherlink.com 1.10,2013-04-16 01:28:00,
2013-04-16 02:43:00,49.1,46.0,29.38,SE,138,7.0,-999.0,90,-99.99,,,0.02,0,weatherlink.com 1.10,2013-04-16 01:43:00,
2013-04-16 02:58:00,49.1,46.0,29.37,South,185,5.0,-999.0,90,-99.99,,,0.02,0,weatherlink.com 1.10,2013-04-16 01:58:00,
2013-04-16 03:13:00,49.1,46.0,29.36,ESE,111,14.0,-999.0,90,-99.99,,,0.02,0,weatherlink.com 1.10,2013-04-16 02:13:00,
2013-04-16 03:28:00,49.0,46.0,29.35,SE,142,4.0,-999.0,90,-99.99,,,0.02,0,weatherlink.com 1.10,2013-04-16 02:28:00,
2013-04-16 03:43:00,49.1,46.0,29.35,South,174,8.0,-999.0,89,-99.99,,,0.02,0,weatherlink.com 1.10,2013-04-16 02:43:00,
2013-04-16 03:58:00,49.2,46.0,29.34,SSE,148,7.0,-999.0,88,-99.99,,,0.02,0,weatherlink.com 1.10,2013-04-16 02:58:00,
2013-04-16 04:13:00,49.3,46.0,29.33,SSW,195,8.0,-999.0,88,-99.99,,,0.02,0,weatherlink.com 1.10,2013-04-16 03:13:00,
2013-04-16 04:28:00,49.4,46.0,29.32,SSW,196,13.0,-999.0,87,-99.99,,,0.02,0,weatherlink.com 1.10,2013-04-16 03:28:00,
2013-04-16 04:43:00,49.4,46.0,29.31,ENE,77,15.0,-999.0,87,-99.99,,,0.02,0,weatherlink.com 1.10,2013-04-16 03:43:00,
2013-04-16 04:58:00,49.3,45.0,29.30,SSW,196,20.0,-999.0,86,-99.99,,,0.02,0,weatherlink.com 1.10,2013-04-16 03:58:00,
2013-04-16 05:13:00,49.2,45.0,29.30,SSW,198,15.0,-999.0,86,-99.99,,,0.02,0,weatherlink.com 1.10,2013-04-16 04:13:00,
2013-04-16 05:28:00,48.9,45.0,29.29,SW,219,9.0,-999.0,86,-99.99,,,0.02,0,weatherlink.com 1.10,2013-04-16 04:28:00,
2013-04-16 05:43:00,48.7,45.0,29.29,SSW,196,15.0,-999.0,86,-99.99,,,0.03,0,weatherlink.com 1.10,2013-04-16 04:43:00,
2013-04-16 05:58:00,48.6,45.0,29.28,SSW,201,24.0,-999.0,86,-99.99,,,0.03,0,weatherlink.com 1.10,2013-04-16 04:58:00,
2013-04-16 06:13:00,48.5,44.0,29.28,SSW,196,18.0,-999.0,85,-99.99,,,0.03,0,weatherlink.com 1.10,2013-04-16 05:13:00,
2013-04-16 06:28:00,48.6,44.0,29.29,SSW,203,17.0,-999.0,85,-99.99,,,0.04,0,weatherlink.com 1.10,2013-04-16 05:28:00,
2013-04-16 06:43:00,48.5,44.0,29.29,SSW,195,11.0,-999.0,85,-99.99,,,0.04,7,weatherlink.com 1.10,2013-04-16 05:43:00,
2013-04-16 06:59:00,48.7,44.0,29.30,SSW,196,17.0,-999.0,84,-99.99,,,0.04,5,weatherlink.com 1.10,2013-04-16 05:59:00,
2013-04-16 07:14:00,48.6,44.0,29.30,South,188,18.0,-999.0,84,-99.99,,,0.04,7,weatherlink.com 1.10,2013-04-16 06:14:00,
2013-04-16 07:29:00,48.7,44.0,29.31,SSE,167,18.0,-999.0,84,-99.99,,,0.04,14,weatherlink.com 1.10,2013-04-16 06:29:00,
2013-04-16 07:44:00,48.6,44.0,29.32,SE,144,14.0,-999.0,84,-99.99,,,0.04,25,weatherlink.com 1.10,2013-04-16 06:44:00,
2013-04-16 07:59:00,48.1,44.0,29.32,SSW,194,16.0,-999.0,85,-99.99,,,0.04,25,weatherlink.com 1.10,2013-04-16 06:59:00,
2013-04-16 08:14:00,48.5,44.0,29.32,South,183,24.0,-999.0,83,-99.99,,,0.04,28,weatherlink.com 1.10,2013-04-16 07:14:00,
2013-04-16 08:29:00,48.5,44.0,29.32,South,191,16.0,-999.0,83,-99.99,,,0.04,32,weatherlink.com 1.10,2013-04-16 07:29:00,
2013-04-16 08:44:00,48.8,43.0,29.32,South,186,14.0,-999.0,81,-99.99,,,0.04,47,weatherlink.com 1.10,2013-04-16 07:44:00,
2013-04-16 08:59:00,48.6,43.0,29.33,South,174,12.0,-999.0,81,-99.99,,,0.04,60,weatherlink.com 1.10,2013-04-16 07:59:00,
2013-04-16 09:14:00,48.6,43.0,29.33,SSE,155,20.0,-999.0,82,-99.99,,,0.04,84,weatherlink.com 1.10,2013-04-16 08:14:00,
2013-04-16 09:29:00,49.1,43.0,29.34,SW,226,19.0,-999.0,79,-99.99,,,0.04,88,weatherlink.com 1.10,2013-04-16 08:29:00,
2013-04-16 09:44:00,48.4,44.0,29.35,WSW,240,10.0,-999.0,83,-99.99,,,0.04,84,weatherlink.com 1.10,2013-04-16 08:44:00,
2013-04-16 09:59:00,47.5,44.0,29.36,SSW,200,12.0,-999.0,87,-99.99,,,0.05,76,weatherlink.com 1.10,2013-04-16 08:59:00,
2013-04-16 10:14:00,47.5,44.0,29.36,SSE,167,10.0,-999.0,88,-99.99,,,0.06,95,weatherlink.com 1.10,2013-04-16 09:14:00,
2013-04-16 10:29:00,47.3,44.0,29.38,South,178,16.0,-999.0,88,-99.99,,,0.07,76,weatherlink.com 1.10,2013-04-16 09:29:00,
2013-04-16 10:44:00,46.9,44.0,29.39,SSW,209,9.0,-999.0,89,-99.99,,,0.08,72,weatherlink.com 1.10,2013-04-16 09:44:00,
2013-04-16 10:59:00,47.1,44.0,29.40,SE,130,12.0,-999.0,90,-99.99,,,0.09,134,weatherlink.com 1.10,2013-04-16 09:59:00,
2013-04-16 11:14:00,47.2,45.0,29.41,SW,223,13.0,-999.0,90,-99.99,,,0.09,93,weatherlink.com 1.10,2013-04-16 10:14:00,
2013-04-16 11:29:00,47.9,45.0,29.43,SW,215,6.0,-999.0,88,-99.99,,,0.09,98,weatherlink.com 1.10,2013-04-16 10:29:00,
2013-04-16 11:44:00,47.9,45.0,29.44,SW,227,13.0,-999.0,88,-99.99,,,0.09,86,weatherlink.com 1.10,2013-04-16 10:44:00,
2013-04-16 11:59:00,47.5,45.0,29.45,SW,219,4.0,-999.0,90,-99.99,,,0.09,118,weatherlink.com 1.10,2013-04-16 10:59:00,
2013-04-16 12:14:00,48.4,45.0,29.46,SSW,205,13.0,-999.0,89,-99.99,,,0.09,243,weatherlink.com 1.10,2013-04-16 11:14:00,
2013-04-16 12:29:00,48.3,45.0,29.48,WSW,240,6.0,-999.0,89,-99.99,,,0.13,248,weatherlink.com 1.10,2013-04-16 11:29:00,
2013-04-16 12:44:00,50.7,48.0,29.49,SSW,209,9.0,-999.0,89,-99.99,,,0.13,580,weatherlink.com 1.10,2013-04-16 11:44:00,
2013-04-16 12:59:00,51.1,47.0,29.49,SSW,195,14.0,-999.0,85,-99.99,,,0.13,367,weatherlink.com 1.10,2013-04-16 11:59:00,
2013-04-16 13:14:00,50.2,46.0,29.50,SSW,211,13.0,-999.0,84,-99.99,,,0.13,1030,weatherlink.com 1.10,2013-04-16 12:14:00,
2013-04-16 13:29:00,51.7,46.0,29.51,South,170,11.0,-999.0,80,-99.99,,,0.13,454,weatherlink.com 1.10,2013-04-16 12:29:00,
2013-04-16 13:44:00,52.3,45.0,29.52,WSW,248,16.0,-999.0,76,-99.99,,,0.13,445,weatherlink.com 1.10,2013-04-16 12:44:00,
2013-04-16 13:59:00,53.1,45.0,29.54,SW,221,8.0,-999.0,75,-99.99,,,0.13,475,weatherlink.com 1.10,2013-04-16 12:59:00,
2013-04-16 14:14:00,52.5,44.0,29.55,SW,225,6.0,-999.0,73,-99.99,,,0.13,729,weatherlink.com 1.10,2013-04-16 13:14:00,
2013-04-16 14:29:00,52.5,43.0,29.57,NW,308,6.0,-999.0,71,-99.99,,,0.13,411,weatherlink.com 1.10,2013-04-16 13:29:00,
2013-04-16 14:44:00,54.4,43.0,29.58,SSW,206,9.0,-999.0,66,-99.99,,,0.13,329,weatherlink.com 1.10,2013-04-16 13:44:00,
2013-04-16 14:59:00,54.3,43.0,29.59,West,264,9.0,-999.0,67,-99.99,,,0.13,896,weatherlink.com 1.10,2013-04-16 13:59:00,
2013-04-16 15:14:00,54.9,41.0,29.59,SW,233,15.0,-999.0,59,-99.99,,,0.13,348,weatherlink.com 1.10,2013-04-16 14:14:00,
2013-04-16 15:30:00,54.2,41.0,29.59,SW,232,10.0,-999.0,62,-99.99,,,0.13,218,weatherlink.com 1.10,2013-04-16 14:30:00,
2013-04-16 15:45:00,52.5,42.0,29.60,WSW,245,14.0,-999.0,68,-99.99,,,0.13,223,weatherlink.com 1.10,2013-04-16 14:45:00,
2013-04-16 16:00:00,53.1,40.0,29.61,WNW,298,16.0,-999.0,61,-99.99,,,0.13,580,weatherlink.com 1.10,2013-04-16 15:00:00,
2013-04-16 16:15:00,51.8,41.0,29.62,SW,227,15.0,-999.0,66,-99.99,,,0.13,132,weatherlink.com 1.10,2013-04-16 15:15:00,
2013-04-16 16:30:00,51.6,40.0,29.63,West,266,18.0,-999.0,64,-99.99,,,0.13,343,weatherlink.com 1.10,2013-04-16 15:30:00,
2013-04-16 16:45:00,53.1,39.0,29.64,West,265,10.0,-999.0,60,-99.99,,,0.13,116,weatherlink.com 1.10,2013-04-16 15:45:00,
2013-04-16 17:00:00,52.6,39.0,29.64,WSW,252,21.0,-999.0,61,-99.99,,,0.13,441,weatherlink.com 1.10,2013-04-16 16:00:00,
2013-04-16 17:15:00,53.1,39.0,29.66,SW,222,10.0,-999.0,59,-99.99,,,0.13,432,weatherlink.com 1.10,2013-04-16 16:15:00,
2013-04-16 17:30:00,51.3,37.0,29.67,SW,225,13.0,-999.0,59,-99.99,,,0.13,69,weatherlink.com 1.10,2013-04-16 16:30:00,
2013-04-16 17:45:00,49.8,42.0,29.69,SW,236,9.0,-999.0,74,-99.99,,,0.13,216,weatherlink.com 1.10,2013-04-16 16:45:00,
2013-04-16 18:10:00,50.7,40.0,29.69,SW,229,9.0,-999.0,66,-99.99,,,0.13,127,weatherlink.com 1.10,2013-04-16 17:10:00,
2013-04-16 18:30:00,50.2,38.0,29.69,WNW,285,14.0,-999.0,64,-99.99,,,0.13,230,weatherlink.com 1.10,2013-04-16 17:30:00,
2013-04-16 18:45:00,49.7,39.0,29.70,West,267,19.0,-999.0,66,-99.99,,,0.13,62,weatherlink.com 1.10,2013-04-16 17:45:00,
2013-04-16 19:00:00,49.6,37.0,29.69,WSW,242,10.0,-999.0,62,-99.99,,,0.13,42,weatherlink.com 1.10,2013-04-16 18:00:00,
2013-04-16 19:15:00,49.2,38.0,29.70,WSW,238,16.0,-999.0,65,-99.99,,,0.13,53,weatherlink.com 1.10,2013-04-16 18:15:00,
2013-04-16 19:30:00,49.2,39.0,29.70,SW,235,8.0,-999.0,69,-99.99,,,0.13,40,weatherlink.com 1.10,2013-04-16 18:30:00,
2013-04-16 19:45:00,49.4,40.0,29.71,SW,219,5.0,-999.0,69,-99.99,,,0.13,30,weatherlink.com 1.10,2013-04-16 18:45:00,
2013-04-16 20:00:00,49.3,40.0,29.72,West,261,14.0,-999.0,71,-99.99,,,0.13,19,weatherlink.com 1.10,2013-04-16 19:00:00,
2013-04-16 20:15:00,48.3,39.0,29.73,WSW,237,10.0,-999.0,70,-99.99,,,0.13,11,weatherlink.com 1.10,2013-04-16 19:15:00,
2013-04-16 20:30:00,47.9,39.0,29.73,SW,227,8.0,-999.0,71,-99.99,,,0.13,0,weatherlink.com 1.10,2013-04-16 19:30:00,
2013-04-16 20:45:00,47.9,39.0,29.74,SW,232,10.0,-999.0,72,-99.99,,,0.13,0,weatherlink.com 1.10,2013-04-16 19:45:00,
2013-04-16 21:00:00,47.6,39.0,29.75,West,264,7.0,-999.0,73,-99.99,,,0.13,0,weatherlink.com 1.10,2013-04-16 20:00:00,
2013-04-16 21:15:00,47.1,39.0,29.77,WSW,244,8.0,-999.0,74,-99.99,,,0.13,0,weatherlink.com 1.10,2013-04-16 20:15:00,
2013-04-16 21:30:00,47.3,39.0,29.78,SSW,206,8.0,-999.0,73,-99.99,,,0.13,0,weatherlink.com 1.10,2013-04-16 20:30:00,
2013-04-16 21:45:00,47.2,39.0,29.79,SSW,200,4.0,-999.0,74,-99.99,,,0.13,0,weatherlink.com 1.10,2013-04-16 20:45:00,
2013-04-16 22:00:00,46.6,40.0,29.79,South,186,5.0,-999.0,77,-99.99,,,0.13,0,weatherlink.com 1.10,2013-04-16 21:00:00,
2013-04-16 22:15:00,46.3,39.0,29.80,South,190,4.0,-999.0,76,-99.99,,,0.13,0,weatherlink.com 1.10,2013-04-16 21:15:00,
2013-04-16 22:30:00,46.0,39.0,29.81,SW,234,6.0,-999.0,76,-99.99,,,0.13,0,weatherlink.com 1.10,2013-04-16 21:30:00,
2013-04-16 22:45:00,46.5,39.0,29.80,West,261,7.0,-999.0,75,-99.99,,,0.13,0,weatherlink.com 1.10,2013-04-16 21:45:00,
2013-04-16 23:00:00,46.1,39.0,29.80,SW,229,4.0,-999.0,76,-99.99,,,0.13,0,weatherlink.com 1.10,2013-04-16 22:00:00,
2013-04-16 23:15:00,46.1,39.0,29.79,West,269,8.0,-999.0,77,-99.99,,,0.13,0,weatherlink.com 1.10,2013-04-16 22:15:00,
2013-04-16 23:30:00,46.7,40.0,29.79,SW,227,6.0,-999.0,76,-99.99,,,0.13,0,weatherlink.com 1.10,2013-04-16 22:30:00,
2013-04-16 23:45:00,46.4,39.0,29.80,SSW,210,5.0,-999.0,76,-99.99,,,0.13,0,weatherlink.com 1.10,2013-04-16 22:45:00,